User: anonymous   Login
Location: Caltech
(34.1382°N, 118.1253°W)
Time: 00:33:39
(UTC-08:00)
Language:

Lacrosse 5 rocket - Orbit

View from above orbital plane
View from above orbital plane
View from above satellite
View from above satellite

Ground track
Ground track

The orbit data is extracted from the following two-line orbital elements,

1 28647U 05016B   16027.73263593 0.00002000  00000-0  12150-3 0    00
2 28647  56.9911 270.4714 0122706 121.5402 238.2824 15.03884621    05
Epoch (UTC): 27 January 2016 17:34:59
Eccentricity: 0.0122706
inclination: 56.9911°
perigee height: 470 km
apogee height: 640 km
right ascension of ascending node: 270.4714°
argument of perigee: 121.5402°
revolutions per day: 15.03884621
mean anomaly at epoch: 238.2824°
orbit number at epoch: 0

The dashed part of the orbit path shows where the satellite is in the earth's shadow,  

DLR